Regional Weather Roundup
Issued by NWS Little Rock, AR

Home | Current Version | Previous Version | Graphics & Text | Print | Product List | Glossary On
Versions: 1 2 3 4 5 6 7 8 9 10 11 12 13 14 15 16 17 18 19 20 21 22 23 24 25 26 27 28 29 30 31 32 33 34 35 36 37 38 39 40 41 42 43 44 45 46 47 48 49 50
000
ASUS44 KLZK 021405
RWRLZK

WEATHER ROUNDUP FOR ARKANSAS
NATIONAL WEATHER SERVICE LITTLE ROCK AR
900 AM CDT SUN AUG 02 2015

NOTE: "FAIR" INDICATES FEW OR NO CLOUDS BELOW 12,000 FEET WITH NO
SIGNIFICANT WEATHER AND/OR OBSTRUCTIONS TO VISIBILITY.

ARZ001-003-010-029-021500-
NORTHWEST ARKANSAS

CITY           SKY/WX    TMP DP  RH WIND       PRES   REMARKS
FAYETTEVILLE   SUNNY     73  68  84 SE3       30.03R
FORT SMITH     SUNNY     78  68  71 E5        29.99R
HARRISON       MOSUNNY   80  68  66 CALM      30.03R
BENTONVILLE    MOSUNNY   79  70  73 S5        30.03R
ROGERS         SUNNY     79  72  79 SE6       30.03S
SILOAM SPGS    CLOUDY    73  64  73 CALM      30.01R
HIGHFILL       PTSUNNY   77  71  82 S5        30.02R
SPRINGDALE     MOSUNNY   75  68  78 CALM      30.04S
$$

ARZ004-005-016-021500-
NORTH CENTRAL ARKANSAS

CITY           SKY/WX    TMP DP  RH WIND       PRES   REMARKS
BATESVILLE     SUNNY     79  70  73 CALM      30.00R
FLIPPIN        SUNNY     75  66  73 CALM      29.99R
MTN HOME       SUNNY     77  69  76 CALM      30.01R
$$

ARZ040-041-021500-
WEST CENTRAL ARKANSAS

CITY           SKY/WX    TMP DP  RH WIND       PRES   REMARKS
MENA           SUNNY     79  64  61 CALM      30.03S
MOUNT IDA      SUNNY     77  67  71 CALM      30.00R
$$

ARZ009-017-025-026-028-021500-
NORTHEAST ARKANSAS

CITY           SKY/WX    TMP DP  RH WIND       PRES   REMARKS
JONESBORO      SUNNY     82  70  66 S5        29.99R HX  86
NEWPORT        SUNNY     82  73  74 CALM      30.01R HX  87
WALNUT RIDGE   SUNNY     81  72  74 CALM      29.98S
BLYTHEVILLE    SUNNY     81  73  76 S6        29.99R HX  86
$$

ARZ022-023-033-042-044-021500-
CENTRAL ARKANSAS

CITY           SKY/WX    TMP DP  RH WIND       PRES   REMARKS
LITTLE ROCK    MOSUNNY   85  70  60 CALM      29.99R HX  89
N LITTLE ROCK  MOSUNNY   85  66  52 S5        29.99R HX  88
JACKSONVILLE   SUNNY     82  67  59 W2        29.99R HX  85
SEARCY         SUNNY     81  70  69 CALM      30.01R
HOT SPRINGS    SUNNY     78  67  68 NW3       30.01R
RUSSELLVILLE   SUNNY     78  68  71 CALM      30.00R
$$

ARZ036-021500-
EAST ARKANSAS

CITY           SKY/WX    TMP DP  RH WIND       PRES   REMARKS
WEST MEMPHIS   SUNNY     81  72  74 S6        29.98R HX  85
$$

ARZ050-053-066-070-073-021500-
SOUTHWEST ARKANSAS

CITY           SKY/WX    TMP DP  RH WIND       PRES   REMARKS
ARKADELPHIA    FAIR      80  71  74 CALM      30.00R
CAMDEN         SUNNY     79  64  61 CALM      29.99R
TEXARKANA      SUNNY     81  69  67 NE3       29.99R
EL DORADO      SUNNY     80  66  62 N3        29.99R
DE QUEEN       SUNNY     78  67  68 CALM      29.98R
$$

ARZ056-057-069-021500-
SOUTHEAST ARKANSAS

CITY           SKY/WX    TMP DP  RH WIND       PRES   REMARKS
PINE BLUFF     SUNNY     83  69  62 CALM      29.99R HX  86
STUTTGART      SUNNY     82  66  57 CALM      29.99R HX  85
MONTICELLO     MOSUNNY   82  69  64 NE3       29.99R HX  85

$$





USA.gov is the U.S. government's official web portal to all federal, state and local government web resources and services.